Volver al catálogo

GALS 2

ActivoComunicacionesGEO
NORAD 23717·PAYLOAD·🇷🇺 Russia

Lanzado Nov 17, 1995 desde Baikonur Cosmodrome

Loading…

TLE

ActualizadoSource: Space-Track

Época: Sep 14, 2026, 10:43 UTC

1 23717U 95063A   26257.44676791  .00000017  00000-0  00000-0 0  9997
2 23717  14.5101   1.9100 0006402 314.5423  78.1390  0.99878552112521

Sigue GALS 2 en tiempo real con AllMySat

Download on the App Store